Wind_Speed
13 12 11 11 11 12 13 15 17 18 17 15 14 13 11 10 9 9 8 6 4 3 1 2 4 6 8 8 10 14 16 15 14 14 13 13 14 14 15 15 14 13 13
11 12 11 10 10 11 12 14 17 18 18 16 15 14 12 11 9 9 8 7 5 4 3 1 1 4 8 10 11 11 12 13 12 11 12 12 12 13 14 14 15 15 15
9 11 10 10 10 11 12 14 16 16 17 17 16 15 13 12 11 9 9 8 6 5 4 3 2 1 6 11 13 13 12 11 10 9 10 11 12 13 14 15 16 17 16
6 9 10 10 10 10 11 12 14 15 15 15 15 15 14 12 11 9 8 7 6 5 4 3 3 2 3 8 12 14 13 11 8 7 7 8 11 12 12 13 15 17 17
3 5 7 9 9 9 9 10 11 13 14 14 14 14 14 13 12 10 8 7 6 5 3 3 3 3 1 5 9 12 11 10 7 6 5 6 8 9 9 9 11 14 17
3 2 4 6 8 8 7 8 8 10 12 14 14 14 14 14 13 12 10 9 7 6 4 3 3 3 1 3 7 10 10 10 8 5 4 4 5 5 5 6 7 10 14
6 3 2 3 6 6 6 5 6 6 7 10 11 11 12 13 14 14 13 12 10 9 7 5 4 3 2 1 5 8 9 10 8 6 5 5 5 5 5 5 5 6 9
7 5 3 2 3 4 5 4 3 4 3 4 6 7 8 10 12 14 15 14 13 12 11 9 6 5 4 2 2 6 8 9 9 7 6 6 7 7 7 8 7 7 8
7 7 6 4 3 2 3 3 3 2 1 1 2 3 3 5 8 11 13 14 14 13 13 12 9 7 5 4 2 2 6 8 9 8 8 7 8 8 9 9 10 9 9
5 6 7 8 6 5 3 3 2 2 1 1 2 2 2 2 3 5 8 12 13 13 12 11 10 8 6 4 2 1 4 7 8 8 8 7 8 7 7 8 10 11 10
2 4 6 9 9 8 7 6 5 3 3 2 3 3 2 2 2 2 4 7 9 10 9 10 10 8 6 3 1 2 4 6 7 7 7 7 7 7 6 5 7 11 10
0 2 5 7 10 11 11 11 9 7 6 5 4 4 4 3 3 3 2 3 5 6 6 6 7 8 6 3 1 3 5 7 8 8 8 8 8 8 7 6 5 7 8
2 3 5 7 10 13 14 14 12 10 9 7 7 8 7 7 5 4 3 3 3 3 2 2 2 3 4 3 1 5 8 10 11 12 11 11 11 10 10 9 8 8 9
6 6 7 8 10 13 14 15 14 13 11 10 10 11 11 10 8 7 7 5 5 5 5 5 4 3 3 2 2 6 10 13 14 15 15 15 15 15 14 13 13 13 12
11 10 10 11 12 13 14 15 15 15 15 15 14 14 14 12 11 10 10 9 8 8 8 9 8 6 5 6 6 7 10 14 17 19 19 20 20 19 19 18 18 18 17
16 15 15 15 15 15 15 16 16 17 17 18 18 17 17 15 13 12 12 11 11 12 13 13 13 11 9 8 9 10 11 15 18 21 23 24 24 23 23 23 23 22 21
21 19 19 18 18 18 17 18 19 19 20 20 20 20 19 18 15 14 14 13 14 15 17 17 17 16 14 13 13 12 13 15 18 21 24 26 27 27 28 28 27 27 26
26 24 22 21 21 21 19 19 20 20 20 20 20 20 20 19 18 17 17 17 18 19 20 19 19 18 18 18 17 16 16 17 19 22 24 27 29 30 30 30 30 29 29
30 28 27 25 24 23 22 21 21 21 21 21 21 21 21 21 20 19 19 20 21 21 21 20 19 19 20 21 21 20 19 20 22 24 26 27 30 31 31 30 30 29 28
33 32 31 29 28 27 26 25 24 23 24 24 24 25 25 25 24 22 21 22 22 22 22 21 20 21 22 23 23 23 22 23 25 25 26 27 28 29 30 30 29 28 27
35 35 35 34 33 32 31 31 29 27 26 27 28 29 29 29 26 24 22 22 23 23 22 22 22 23 24 24 24 24 25 26 26 26 25 26 26 27 28 28 28 28 27
39 38 38 37 36 35 35 36 35 32 30 30 32 34 35 32 29 25 24 23 22 22 22 22 23 24 23 23 24 26 26 27 27 26 25 25 26 26 27 27 27 27 27
40 40 40 39 38 37 39 40 39 36 33 32 32 35 36 34 31 27 25 23 22 22 23 24 24 24 23 23 24 25 26 27 27 25 25 25 25 25 26 26 26 27 27
39 40 40 40 39 39 41 42 41 39 37 35 33 34 36 35 32 29 26 24 23 23 24 25 24 24 24 25 25 25 26 27 27 27 25 24 24 25 26 27 28 27 27
38 41 41 42 42 42 43 45 44 42 44 42 38 36 37 36 33 30 26 24 24 24 25 25 25 24 25 26 26 26 25 26 26 26 25 24 23 23 24 25 28 28 26
38 41 42 43 44 45 46 45 45 45 47 47 44 40 38 37 33 30 26 24 24 24 25 25 25 25 26 26 27 26 25 25 25 24 23 23 23 22 21 21 23 24 25
Wind_Direction
78 85 102 107 97 86 76 67 67 70 75 79 78 77 77 74 70 67 66 68 72 78 82 255 245 230 218 204 204 209 213 213 218 222 225 226 225 227 228 229 229 230 233
80 83 99 108 101 90 79 69 65 68 72 76 77 76 74 72 68 63 59 57 60 66 68 50 287 235 216 203 202 205 209 207 208 214 220 221 224 227 229 230 228 228 232
85 83 95 109 107 97 86 73 66 67 72 77 79 78 75 73 69 63 57 56 57 61 60 45 20 289 215 211 212 213 215 210 206 214 220 225 226 227 228 229 229 230 233
96 83 90 104 109 102 92 81 70 67 72 77 79 79 77 75 72 67 59 54 53 54 53 36 24 8 219 214 217 220 221 215 214 214 219 227 221 215 219 224 229 231 233
122 88 86 96 102 102 98 90 79 72 72 75 79 80 79 77 73 68 61 56 53 52 49 33 24 21 160 202 213 217 217 210 211 209 211 221 210 204 211 218 230 230 230
173 122 92 93 95 98 102 102 95 85 76 75 79 81 82 81 75 70 65 59 53 46 40 28 18 15 61 185 203 210 211 213 216 218 221 228 216 209 217 220 227 225 222
186 174 138 101 95 97 103 110 113 103 85 77 77 78 79 81 79 73 66 59 54 48 39 28 17 13 26 182 203 211 215 217 219 226 237 246 245 239 239 227 219 216 215
183 186 188 160 117 106 107 110 122 130 103 77 72 72 75 78 78 73 66 56 51 49 46 37 25 17 24 42 194 205 209 212 216 225 242 256 255 245 243 238 235 225 218
177 192 202 206 198 169 134 122 124 138 141 48 41 50 64 74 77 75 68 58 49 47 48 44 35 26 22 30 67 173 198 206 212 224 240 250 252 246 245 243 238 230 224
175 196 210 219 225 228 218 187 163 167 140 337 339 349 358 32 65 74 69 62 54 49 49 49 44 39 33 25 42 149 195 207 215 226 235 237 235 236 244 245 237 228 225
186 214 224 230 235 240 242 238 232 226 247 296 318 327 328 330 345 23 59 64 57 52 50 52 50 47 45 36 353 221 214 214 217 219 222 220 220 222 226 232 233 228 227
334 260 255 247 245 245 245 245 244 241 250 270 282 293 297 299 313 328 355 40 49 50 48 50 52 49 46 43 282 238 230 224 219 218 220 220 222 223 220 219 228 230 235
283 276 269 259 253 249 247 246 244 239 242 256 267 272 277 278 280 285 298 325 357 7 6 15 28 31 33 33 250 231 232 232 229 226 227 229 233 235 231 228 234 241 246
263 266 266 264 258 251 247 245 243 241 244 252 262 267 270 274 273 269 269 278 301 320 313 299 300 315 318 304 267 242 236 234 235 236 235 235 236 238 237 235 235 240 245
265 265 265 263 262 256 248 244 244 246 250 253 259 267 269 268 266 263 260 266 280 293 296 286 279 289 296 284 272 264 253 245 241 242 242 241 238 239 240 241 241 242 245
272 270 269 263 259 258 254 248 246 249 253 257 260 265 265 262 260 257 256 263 274 282 285 282 274 280 292 297 283 269 263 258 252 247 246 246 245 243 243 245 246 248 249
280 280 278 271 261 257 256 254 251 252 254 256 259 259 258 256 254 253 256 263 271 276 279 281 278 281 293 302 300 284 269 266 264 259 255 252 250 250 249 249 250 252 253
282 284 283 279 270 259 256 258 258 256 255 254 252 250 251 252 251 254 259 266 270 273 275 280 280 283 292 297 299 291 277 273 272 270 266 261 257 254 253 252 252 254 255
282 283 283 281 277 267 259 258 261 259 257 254 251 249 249 251 253 257 263 268 270 272 275 279 280 283 290 295 296 289 280 276 275 275 273 270 265 261 257 255 254 253 252
275 277 279 279 278 274 266 261 260 259 259 258 256 255 253 253 255 259 265 268 271 273 274 277 280 284 290 293 291 287 282 280 279 278 276 274 270 265 262 259 255 251 248
263 267 271 273 275 275 271 266 263 260 261 263 264 260 256 255 255 257 261 266 269 272 275 279 282 286 290 291 288 287 285 284 284 282 277 273 270 266 262 259 256 252 246
257 259 263 266 270 272 271 269 267 264 263 265 270 267 258 253 254 256 259 262 267 271 277 281 284 288 290 290 288 287 285 285 285 284 280 274 270 266 262 257 254 252 247
256 256 257 260 263 266 268 269 269 267 266 268 273 272 264 252 251 255 259 262 267 272 277 283 287 290 291 289 286 283 283 285 286 284 281 277 271 266 262 258 254 250 248
256 254 253 254 257 259 261 263 265 265 265 266 270 271 266 255 251 253 258 262 267 273 279 285 288 289 288 286 283 280 280 283 284 283 279 278 274 267 264 260 255 248 247
256 251 250 249 251 254 256 257 258 260 262 264 267 269 265 258 254 255 256 261 269 275 280 284 285 285 284 282 280 278 278 279 280 279 276 275 275 273 267 259 251 245 244
260 252 249 248 248 250 253 254 254 257 260 262 264 267 263 259 254 253 255 261 268 273 277 279 280 282 281 279 279 278 277 277 278 276 273 271 271 273 269 257 246 240 242
Height
5912 5911 5910 5910 5910 5910 5909 5908 5906 5905 5903 5902 5901 5901 5900 5899 5898 5897 5897 5896 5896 5896 5897 5896 5897 5897 5898 5898 5899 5900 5901 5903 5904 5906 5907 5908 5909 5910 5911 5912 5914 5915 5916
5913 5912 5911 5911 5911 5911 5910 5909 5908 5906 5905 5904 5903 5902 5901 5900 5899 5899 5898 5897 5897 5897 5896 5896 5896 5896 5897 5898 5899 5900 5901 5901 5903 5904 5905 5906 5907 5908 5910 5910 5911 5913 5914
5913 5912 5912 5912 5912 5912 5911 5911 5910 5909 5908 5907 5905 5904 5903 5902 5901 5900 5899 5898 5897 5897 5897 5896 5895 5895 5896 5897 5898 5899 5900 5900 5901 5903 5904 5905 5905 5906 5907 5908 5909 5910 5911
5913 5913 5913 5912 5912 5912 5912 5912 5912 5911 5910 5909 5908 5906 5905 5903 5902 5901 5900 5899 5898 5897 5897 5896 5896 5895 5895 5896 5897 5898 5899 5899 5901 5902 5903 5903 5904 5904 5905 5906 5907 5908 5909
5913 5913 5913 5913 5913 5913 5913 5913 5913 5913 5912 5911 5910 5908 5906 5905 5903 5902 5901 5900 5899 5898 5897 5897 5896 5896 5895 5895 5896 5897 5899 5900 5901 5901 5902 5902 5902 5903 5904 5904 5904 5905 5906
5913 5913 5914 5914 5913 5914 5914 5914 5914 5914 5913 5913 5911 5910 5908 5907 5906 5904 5903 5901 5900 5899 5898 5897 5897 5896 5896 5895 5896 5897 5899 5900 5901 5902 5902 5902 5902 5902 5903 5903 5903 5903 5904
5913 5913 5914 5914 5914 5914 5914 5915 5915 5915 5915 5914 5913 5912 5910 5909 5908 5906 5905 5903 5901 5899 5898 5898 5897 5897 5896 5896 5896 5897 5898 5899 5901 5902 5902 5902 5902 5902 5903 5903 5902 5902 5903
5912 5913 5914 5914 5914 5914 5915 5915 5915 5915 5915 5915 5914 5913 5912 5910 5909 5908 5907 5905 5903 5901 5899 5898 5897 5897 5896 5896 5896 5896 5897 5898 5900 5901 5902 5902 5902 5902 5902 5902 5902 5902 5903
5912 5912 5913 5913 5914 5914 5914 5915 5915 5915 5915 5914 5914 5913 5913 5911 5910 5909 5908 5906 5904 5902 5901 5899 5898 5897 5897 5896 5896 5896 5897 5898 5899 5900 5901 5901 5901 5902 5902 5902 5902 5902 5903
5911 5911 5911 5912 5912 5913 5914 5914 5914 5914 5913 5913 5913 5913 5912 5911 5910 5909 5908 5907 5905 5904 5902 5900 5898 5897 5896 5896 5896 5896 5897 5897 5898 5899 5900 5900 5900 5901 5901 5901 5901 5901 5902
5910 5910 5910 5910 5911 5912 5912 5913 5913 5913 5912 5912 5912 5911 5911 5910 5909 5908 5908 5907 5906 5904 5902 5901 5899 5897 5896 5896 5896 5896 5896 5897 5897 5898 5899 5899 5899 5900 5900 5900 5900 5901 5901
5908 5908 5908 5908 5909 5909 5910 5910 5911 5911 5911 5911 5911 5910 5910 5909 5908 5907 5907 5906 5905 5904 5902 5901 5900 5898 5896 5895 5895 5895 5895 5895 5896 5897 5898 5898 5899 5899 5900 5900 5900 5901 5901
5907 5907 5906 5906 5906 5906 5907 5907 5908 5908 5909 5909 5908 5908 5907 5907 5906 5906 5905 5905 5904 5903 5902 5900 5899 5898 5897 5895 5894 5893 5893 5894 5894 5895 5896 5896 5897 5898 5898 5899 5899 5900 5900
5905 5905 5904 5904 5904 5903 5904 5904 5904 5905 5906 5906 5905 5905 5904 5904 5904 5903 5903 5902 5902 5901 5901 5900 5898 5897 5896 5895 5893 5892 5891 5891 5892 5892 5893 5894 5894 5895 5896 5896 5897 5898 5899
5903 5902 5902 5901 5901 5901 5901 5901 5901 5902 5902 5903 5903 5902 5901 5901 5901 5900 5900 5899 5899 5898 5898 5897 5896 5895 5894 5894 5892 5891 5890 5889 5889 5889 5890 5890 5891 5892 5892 5893 5894 5895 5896
5900 5900 5899 5898 5898 5898 5898 5898 5897 5897 5898 5898 5899 5899 5898 5897 5897 5896 5896 5896 5895 5895 5894 5894 5893 5892 5892 5891 5890 5889 5889 5888 5886 5885 5885 5886 5886 5887 5888 5889 5890 5891 5892
5896 5896 5896 5895 5894 5894 5894 5894 5893 5892 5892 5893 5894 5894 5894 5893 5893 5892 5892 5892 5892 5891 5890 5890 5890 5889 5889 5888 5888 5887 5886 5885 5884 5883 5881 5881 5881 5882 5882 5884 5885 5886 5887
5891 5891 5891 5890 5889 5889 5889 5889 5888 5887 5887 5887 5888 5888 5889 5889 5889 5888 5888 5888 5888 5887 5886 5886 5885 5885 5885 5884 5884 5883 5882 5881 5880 5879 5878 5876 5876 5876 5877 5878 5879 5880 5882
5884 5884 5884 5884 5884 5884 5884 5884 5883 5883 5882 5882 5882 5883 5884 5884 5884 5884 5884 5883 5883 5883 5883 5882 5882 5882 5881 5880 5879 5878 5877 5876 5876 5874 5873 5872 5871 5870 5871 5872 5873 5874 5876
5877 5877 5877 5877 5877 5877 5878 5878 5878 5878 5877 5877 5877 5878 5878 5878 5879 5878 5878 5878 5878 5878 5878 5878 5878 5878 5877 5876 5875 5874 5873 5871 5870 5869 5867 5866 5865 5864 5865 5866 5867 5868 5870
5870 5869 5869 5870 5870 5871 5871 5871 5872 5872 5872 5872 5872 5872 5872 5872 5873 5873 5873 5873 5873 5873 5873 5873 5872 5872 5871 5870 5869 5868 5867 5865 5864 5863 5862 5860 5859 5858 5858 5859 5861 5862 5864
5863 5863 5862 5863 5864 5864 5864 5864 5864 5865 5865 5865 5865 5865 5864 5865 5867 5867 5868 5868 5868 5867 5867 5867 5867 5865 5864 5864 5863 5862 5860 5859 5857 5856 5855 5854 5853 5852 5852 5853 5854 5856 5858
5854 5855 5855 5856 5857 5857 5856 5856 5856 5857 5858 5858 5858 5858 5858 5858 5860 5861 5862 5862 5862 5862 5862 5862 5861 5860 5859 5858 5857 5856 5854 5853 5851 5850 5849 5848 5847 5846 5846 5847 5848 5850 5853
5844 5846 5847 5848 5849 5849 5849 5849 5849 5849 5850 5851 5852 5852 5851 5852 5853 5855 5856 5856 5857 5857 5856 5856 5855 5855 5853 5852 5851 5849 5848 5847 5845 5844 5843 5842 5841 5840 5840 5841 5842 5844 5847
5834 5835 5837 5838 5840 5840 5840 5840 5842 5841 5841 5842 5843 5844 5845 5846 5847 5848 5849 5850 5851 5851 5851 5850 5850 5849 5848 5846 5844 5843 5842 5841 5839 5838 5837 5836 5835 5835 5834 5834 5836 5838 5841
5825 5826 5827 5828 5830 5831 5832 5833 5834 5834 5833 5832 5834 5836 5838 5839 5840 5841 5842 5843 5844 5845 5845 5844 5843 5842 5841 5840 5838 5837 5836 5835 5833 5832 5831 5830 5830 5830 5829 5829 5830 5832 5835